SWOT

Last updated on Mon Feb 16 2026 00:02:31 GMT+0000 (Coordinated Universal Time)

1 54754U 22173A 26046.51601078 .00000046 00000+0 33123-4 0 9991 2 54754 77.6096 199.5472 0000414 329.7881 30.3247 14.00166508162128
UTC large
Height (km)
Speed (km/s)
/
Latitude / Longitude
Inclination (degrees)
Orbital Period (minutes)
Azimuth
Elevation
Range (km)
Doppler Factor

Next 0 passes for location: London (51.5072 / 0.1276)

Sorry there are no passes over London.